Location: Newark
(22.3060°N, 114.2134°E)
Time: 07:46:57
(UTC+00:00)

Vanguard 2 - Pass Details

Date: 05 August 2021
Orbit: 553 x 2937 km, 32.9° (Epoch: 24 September)

Event Time Altitude Azimuth Distance (km) Brightness Sun altitude
Rises 03:44:19 0° 272° (W) 4,219 11.2 78.1°
Reaches altitude 10° 03:47:30 10° 259° (WSW) 3,584 11.0 78.8°
Maximum altitude 03:54:49 24° 209° (SSW) 3,294 11.1 80.3°
Drops below altitude 10° 04:05:00 10° 162° (SSE) 5,099 12.0 82.2°
Sets 04:10:52 0° 151° (SSE) 6,442 12.3 83.1°
